Date String (YYYY-MM-DD hh:mm:ss) UTC,Instrument flags,Ambient pressure (hPa),Sample flow (lpm),Bypass flow (lpm),Sample temperature (°C),Ambient temperature (°C),ASC tube jacket temperature (°C),LED temperature (°C),Box temperature (°C),Sample RH (%),Span deviation,Mass concentration (μg/m³),Mass concentration (μg/m³),Mass concentration (μg/m³)
DateTimeUTC,F1_M11,P_M11,Q1_M11,Q2_M11,T1_M11,T2_M11,T3_M11,T4_M11,T5_M11,U1_M11,ZSPAN_M11,X0_M11,X2_M11,X1_M11
2021-11-03 02:00:00,,0830.9,4.99,0.00,24.9,24.1,00.0,34.1,26.7,22.8,-001.9,0016.15,0012.72,0012.19
2021-11-03 02:01:00,,0831.0,5.01,0.00,24.9,24.0,00.0,34.1,26.7,22.9,-001.8,0016.26,0012.71,0012.15
2021-11-03 02:02:00,,0830.9,5.00,0.00,24.9,24.0,00.0,34.1,26.6,22.9,-001.9,0016.12,0012.64,0012.11
2021-11-03 02:03:00,,0830.9,4.99,0.00,24.8,23.9,00.0,34.0,26.5,23.0,-001.9,0016.03,0012.61,0012.08
2021-11-03 02:04:00,,0830.9,5.00,0.00,24.8,23.9,00.0,34.0,26.5,23.0,-002.0,0015.88,0012.54,0012.03
2021-11-03 02:05:00,,0830.9,5.00,0.00,24.7,23.8,00.0,34.0,26.4,23.1,-002.1,0016.01,0012.53,0012.00
2021-11-03 02:06:00,,0830.9,4.99,0.00,24.7,23.8,00.0,34.0,26.3,23.2,-002.0,0015.97,0012.49,0011.95
2021-11-03 02:07:00,,0830.9,5.00,0.00,24.6,23.7,00.0,33.9,26.3,23.2,-001.9,0015.30,0012.41,0011.90
2021-11-03 02:08:00,,0830.9,5.00,0.00,24.6,23.7,00.0,33.9,26.3,23.2,-001.8,0015.46,0012.45,0011.90
2021-11-03 02:09:00,,0830.9,5.00,0.00,24.5,23.6,00.0,33.9,26.2,23.3,-002.0,0015.69,0012.47,0011.91
2021-11-03 02:10:00,,0830.9,5.00,0.00,24.5,23.6,00.0,33.8,26.2,23.4,-002.1,0015.73,0012.46,0011.92
2021-11-03 02:11:00,,0831.0,5.00,0.00,24.5,23.6,00.0,33.8,26.2,23.4,-002.1,0015.78,0012.49,0011.92
2021-11-03 02:12:00,,0830.9,4.98,0.00,24.5,23.6,00.0,33.8,26.2,23.4,-002.1,0015.74,0012.48,0011.92
2021-11-03 02:13:00,,0830.9,5.01,0.00,24.5,23.6,00.0,33.8,26.2,23.4,-001.9,0015.78,0012.49,0011.91
2021-11-03 02:14:00,,0830.9,5.00,0.00,24.4,23.6,00.0,33.7,26.2,23.4,-001.6,0015.81,0012.50,0011.92
2021-11-03 02:15:00,,0830.9,4.98,0.00,24.4,23.6,00.0,33.7,26.3,23.4,-001.5,0015.89,0012.52,0011.93
2021-11-03 02:16:00,,0830.9,5.01,0.00,24.4,23.6,00.0,33.7,26.2,23.5,-001.2,0015.95,0012.53,0011.92
2021-11-03 02:17:00,,0830.9,4.99,0.00,24.4,23.6,00.0,33.7,26.2,23.5,-000.8,0016.25,0012.51,0011.90
2021-11-03 02:18:00,,0830.9,5.01,0.00,24.4,23.6,00.0,33.6,26.2,23.4,-000.8,0016.53,0012.54,0011.91
2021-11-03 02:19:00,,0830.9,4.99,0.00,24.4,23.6,00.0,33.6,26.2,23.5,-000.8,0016.33,0012.51,0011.92
2021-11-03 02:20:00,,0830.9,5.00,0.00,24.4,23.6,00.0,33.6,26.2,23.4,-000.9,0016.12,0012.51,0011.92
2021-11-03 02:21:00,,0831.0,5.00,0.00,24.4,23.6,00.0,33.6,26.2,23.4,-000.8,0016.00,0012.53,0011.94
2021-11-03 02:22:00,,0831.0,4.99,0.00,24.4,23.6,00.0,33.6,26.2,23.4,-000.8,0016.22,0012.53,0011.95
2021-11-03 02:23:00,,0831.0,5.00,0.00,24.4,23.5,00.0,33.6,26.2,23.4,-000.8,0016.59,0012.55,0011.95
2021-11-03 02:24:00,,0831.1,5.01,0.00,24.4,23.5,00.0,33.6,26.2,23.4,-001.0,0016.66,0012.57,0011.95
2021-11-03 02:25:00,,0831.0,5.00,0.00,24.4,23.5,00.0,33.5,26.1,23.4,-001.2,0016.66,0012.57,0011.95
2021-11-03 02:26:00,,0831.0,5.00,0.00,24.3,23.5,00.0,33.5,26.1,23.4,-001.3,0016.57,0012.56,0011.94
2021-11-03 02:27:00,,0831.0,5.00,0.00,24.3,23.5,00.0,33.5,26.1,23.4,-001.6,0016.54,0012.55,0011.95
2021-11-03 02:28:00,,0831.0,5.00,0.00,24.3,23.5,00.0,33.5,26.1,23.5,-001.8,0016.39,0012.58,0011.95
2021-11-03 02:29:00,,0831.0,5.01,0.00,24.3,23.5,00.0,33.5,26.1,24.4,-001.9,0016.47,0012.61,0011.97
2021-11-03 02:30:00,,0831.1,5.00,0.00,24.3,23.5,00.0,33.5,26.1,25.0,-001.9,0016.87,0012.59,0011.96
2021-11-03 02:31:00,,0831.0,4.99,0.00,24.3,23.5,00.0,33.4,26.0,24.3,-001.8,0016.83,0012.60,0011.96
2021-11-03 02:32:00,,0831.0,4.99,0.00,24.2,23.4,00.0,33.4,26.0,24.1,-001.9,0016.81,0012.58,0011.93
2021-11-03 02:33:00,,0831.0,5.01,0.00,24.2,23.4,00.0,33.4,26.0,24.1,-002.1,0016.65,0012.58,0011.91
2021-11-03 02:34:00,,0831.1,4.99,0.00,24.2,23.4,00.0,33.4,26.0,24.1,-002.3,0016.37,0012.56,0011.92
2021-11-03 02:35:00,,0831.1,5.00,0.00,24.2,23.4,00.0,33.4,26.0,24.1,-002.5,0016.43,0012.55,0011.92
2021-11-03 02:36:00,,0831.0,5.00,0.00,24.2,23.4,00.0,33.4,26.0,24.2,-002.5,0016.47,0012.54,0011.93
2021-11-03 02:37:00,,0831.0,5.00,0.00,24.2,23.4,00.0,33.4,26.0,24.3,-002.5,0016.49,0012.54,0011.91
2021-11-03 02:38:00,,0831.0,4.99,0.00,24.2,23.4,00.0,33.4,26.0,24.3,-002.3,0016.46,0012.57,0011.91
2021-11-03 02:39:00,,0831.0,5.00,0.00,24.2,23.4,00.0,33.3,25.9,24.3,-002.3,0016.34,0012.57,0011.92
2021-11-03 02:40:00,,0831.0,5.00,0.00,24.1,23.4,00.0,33.3,25.9,24.4,-002.1,0016.09,0012.50,0011.91
2021-11-03 02:41:00,,0831.0,4.99,0.00,24.1,23.4,00.0,33.3,25.9,24.4,-002.2,0015.66,0012.52,0011.91
2021-11-03 02:42:00,,0831.0,4.99,0.00,24.1,23.3,00.0,33.3,25.9,24.6,-002.3,0015.63,0012.49,0011.89
2021-11-03 02:43:00,,0831.0,5.01,0.00,24.1,23.3,00.0,33.3,25.8,24.6,-002.1,0015.62,0012.48,0011.87
2021-11-03 02:44:00,,0831.0,5.00,0.00,24.0,23.3,00.0,33.3,25.7,24.8,-001.8,0015.56,0012.48,0011.87
2021-11-03 02:45:00,,0831.1,5.00,0.00,24.0,23.2,00.0,33.2,25.7,24.9,-001.8,0015.49,0012.45,0011.82
2021-11-03 02:46:00,,0831.0,5.00,0.00,24.0,23.2,00.0,33.2,25.7,25.0,-001.5,0015.31,0012.38,0011.76
2021-11-03 02:47:00,,0831.1,5.00,0.00,24.0,23.2,00.0,33.2,25.7,25.2,-001.4,0015.29,0012.31,0011.67
2021-11-03 02:48:00,,0831.0,5.00,0.00,24.0,23.2,00.0,33.2,25.7,25.4,-001.2,0015.21,0012.20,0011.56
2021-11-03 02:49:00,,0831.0,5.01,0.00,23.9,23.2,00.0,33.2,25.6,25.4,-001.4,0015.04,0012.09,0011.48
2021-11-03 02:50:00,,0831.1,5.01,0.00,23.9,23.1,00.0,33.2,25.6,25.4,-001.4,0014.90,0012.01,0011.45
2021-11-03 02:51:00,,0831.1,4.99,0.00,23.9,23.1,00.0,33.1,25.6,25.4,-001.4,0014.92,0012.01,0011.42
2021-11-03 02:52:00,,0831.2,5.01,0.00,23.9,23.1,00.0,33.1,25.6,25.4,-001.4,0015.16,0011.97,0011.38
2021-11-03 02:53:00,,0831.2,5.01,0.00,23.9,23.1,00.0,33.1,25.6,25.5,-001.4,0015.40,0011.98,0011.38
2021-11-03 02:54:00,,0831.2,5.00,0.00,23.9,23.1,00.0,33.1,25.6,25.6,-001.7,0015.70,0011.98,0011.37
2021-11-03 02:55:00,,0831.2,5.00,0.00,23.9,23.1,00.0,33.1,25.6,25.7,-001.9,0015.69,0011.93,0011.33
2021-11-03 02:56:00,,0831.2,5.00,0.00,23.9,23.1,00.0,33.1,25.6,25.8,-002.0,0015.65,0011.88,0011.28
2021-11-03 02:57:00,,0831.2,4.99,0.00,23.9,23.2,00.0,33.1,25.7,26.0,-002.1,0015.65,0011.81,0011.17
2021-11-03 02:58:00,,0831.2,5.00,0.00,23.9,23.2,00.0,33.1,25.7,26.2,-002.2,0015.41,0011.59,0010.98
2021-11-03 02:59:00,,0831.2,5.00,0.00,24.0,23.3,00.0,33.1,25.8,26.2,-002.1,0015.16,0011.38,0010.78
